GW6033 Weather Reports


time (UTC)temp
C
wind
direction
speed
KPH
gust
KPH
rain 1hr
cm
rain 24hr
cm
rain mn
cm
humidity
%
barometer
mb
20260505153049 2 262 0.0 0.0 0.00 0.28 0.28 98 1016.4
20260505152546 2 259 0.0 0.0 0.00 0.28 0.28 98 1016.7
20260505152042 2 296 1.6 1.6 0.00 0.28 0.28 98 1016.4
20260505151536 2 283 0.0 1.6 0.18 0.28 0.28 97 1016.6
20260505151034 2 266 0.0 0.0 0.18 0.28 0.28 98 1016.4
20260505150530 2 284 0.0 1.6 0.00 0.25 0.25 97 1016.4
20260505140455 2 269 1.6 1.6 0.00 0.23 0.23 97 1016.6
20260505124909 2 277 3.2 4.8 0.00 0.18 0.18 96 1015.5
20260505124406 2 284 1.6 3.2 0.18 0.18 0.18 96 1015.6
20260505123902 2 279 3.2 3.2 0.18 0.18 0.18 96 1015.3
20260505123359 2 271 1.6 1.6 0.00 0.15 0.15 96 1015.0
20260505122854 2 275 3.2 4.8 0.13 0.15 0.15 96 1015.0
20260505122352 3 270 3.2 4.8 0.13 0.15 0.15 96 1015.0
20260505121849 3 273 0.0 1.6 0.00 0.13 0.13 96 1014.8
20260505121346 3 270 1.6 1.6 0.18 0.13 0.13 96 1014.9
20260505120842 3 262 1.6 3.2 0.18 0.13 0.13 95 1014.9
20260505120338 3 304 4.8 4.8 0.13 0.10 0.10 95 1014.5
20260505115837 3 270 4.8 4.8 0.13 0.10 0.10 95 1014.7
20260505115334 3 275 4.8 4.8 0.18 0.08 0.08 95 1014.5
20260505114832 4 273 4.8 8.0 0.18 0.08 0.08 94 1014.4
20260505114328 4 305 3.2 3.2 0.18 0.05 0.05 94 1014.1
20260505113825 4 280 1.6 3.2 0.30 0.05 0.05 93 1014.2
20260505113321 5 269 3.2 3.2 0.13 0.03 0.03 92 1014.3
20260505112817 5 265 4.8 4.8 0.00 0.00 0.00 91 1013.8
20260505112315 5 276 1.6 1.6 0.00 0.00 0.00 91 1014.3
20260505111810 5 330 3.2 4.8 0.00 0.00 0.00 91 1013.8
20260505111306 5 293 1.6 1.6 0.00 0.00 0.00 91 1013.8
20260505110802 5 309 3.2 4.8 0.00 0.00 0.00 90 1013.8
20260505110300 5 284 1.6 1.6 0.00 0.00 0.00 90 1014.0
20260505101734 6 268 1.6 1.6 0.00 0.00 0.00 88 1013.1
20260505101230 6 260 1.6 1.6 0.00 0.00 0.00 88 1013.0
20260505100726 7 270 1.6 3.2 0.00 0.00 0.00 89 1013.0
20260505100223 7 298 3.2 3.2 0.00 0.00 0.00 88 1012.7
20260505095724 7 305 1.6 1.6 0.00 0.00 0.00 88 1012.9
20260505095222 7 273 1.6 1.6 0.00 0.00 0.00 88 1012.8
20260505094717 7 275 0.0 1.6 0.00 0.00 0.00 88 1012.8
20260505094214 7 275 1.6 1.6 0.00 0.00 0.00 89 1012.8
20260505093710 7 275 1.6 1.6 0.00 0.00 0.00 89 1012.7
20260505093208 7 266 0.0 0.0 0.00 0.00 0.00 90 1012.9
20260505092704 7 273 0.0 0.0 0.00 0.00 0.00 90 1012.9
20260505092203 7 277 1.6 1.6 0.00 0.00 0.00 91 1013.0
20260505091700 7 276 0.0 1.6 0.00 0.00 0.00 92 1012.9
20260505091158 7 272 0.0 0.0 0.00 0.00 0.00 92 1012.8
20260505090655 7 273 0.0 0.0 0.00 0.00 0.00 92 1012.7
20260505090154 7 273 0.0 0.0 0.00 0.00 0.00 92 1012.8
20260505085650 7 271 1.6 3.2 0.00 0.00 0.00 92 1012.8
20260505085149 7 290 1.6 1.6 0.00 0.00 0.00 92 1012.9
20260505084646 7 276 0.0 0.0 0.00 0.00 0.00 93 1013.0
20260505084144 7 276 0.0 0.0 0.00 0.00 0.00 94 1013.2
20260505083642 7 275 0.0 0.0 0.00 0.00 0.00 94 1012.9
20260505083138 7 273 0.0 0.0 0.00 0.00 0.00 94 1012.9
20260505082634 7 272 0.0 0.0 0.00 0.00 0.00 94 1013.0
20260505082131 7 272 0.0 0.0 0.00 0.00 0.00 95 1013.4
20260505081626 7 272 0.0 0.0 0.00 0.00 0.00 94 1013.0
20260505081125 7 265 0.0 0.0 0.00 0.00 0.00 95 1012.9
20260505080621 7 267 0.0 0.0 0.00 0.00 0.00 95 1013.0
20260505080117 7 268 0.0 0.0 0.00 0.00 0.00 95 1013.1
20260505075613 7 268 0.0 0.0 0.00 0.00 0.00 95 1012.9
20260505075110 7 263 0.0 0.0 0.00 0.00 0.00 95 1013.0
20260505074607 7 310 3.2 3.2 0.00 0.00 0.00 95 1012.9
20260505074104 8 265 0.0 1.6 0.00 0.00 0.00 95 1013.4
20260505073602 8 252 0.0 0.0 0.00 0.00 0.00 96 1013.5
20260505073100 8 256 0.0 0.0 0.00 0.00 0.00 96 1013.5
20260505072555 8 260 0.0 0.0 0.00 0.00 0.00 96 1013.5
20260505072052 8 258 0.0 0.0 0.00 0.00 0.00 96 1013.4
20260505071547 8 70 1.6 3.2 0.00 0.00 0.00 96 1013.5
20260505071046 8 257 0.0 0.0 0.00 0.00 0.00 96 1013.7
20260505070543 8 255 0.0 0.0 0.00 0.00 0.00 96 1013.5
20260505070039 8 256 0.0 0.0 0.00 0.00 0.00 96 1013.5
20260505065535 8 96 1.6 3.2 0.00 0.00 0.00 96 1013.5
20260505065032 8 65 1.6 3.2 0.00 0.00 0.00 96 1013.7
20260505064528 8 242 1.6 1.6 0.00 0.00 0.00 97 1013.7
20260505064027 8 255 0.0 0.0 0.00 0.00 0.00 97 1014.0
20260505063524 8 256 0.0 0.0 0.00 0.00 0.00 97 1013.7
20260505063019 8 253 0.0 0.0 0.00 0.00 0.00 97 1013.7
20260505062517 8 258 0.0 0.0 0.00 0.00 0.00 97 1013.6
20260505062014 8 274 1.6 1.6 0.00 0.00 0.00 97 1013.7
20260505061511 8 256 0.0 0.0 0.00 0.00 0.00 97 1013.6
20260505061009 8 255 0.0 0.0 0.00 0.00 0.00 97 1013.8
20260505060506 8 243 1.6 1.6 0.00 0.00 0.00 97 1013.6
20260505060002 8 253 0.0 0.0 0.00 0.18 0.18 97 1014.3
20260505055458 8 257 0.0 1.6 0.00 0.18 0.18 96 1013.8
20260505054955 8 245 1.6 3.2 0.00 0.18 0.18 96 1013.7
20260505054452 8 248 1.6 1.6 0.00 0.18 0.18 96 1013.5
20260505053950 8 255 0.0 1.6 0.00 0.18 0.18 96 1013.7
20260505053447 8 277 1.6 1.6 0.00 0.18 0.18 96 1013.5
20260505052944 8 263 0.0 0.0 0.00 0.18 0.18 96 1013.8
20260505052441 8 247 1.6 1.6 0.00 0.18 0.18 96 1013.8
20260505051938 8 256 0.0 0.0 0.00 0.18 0.18 96 1013.8
20260505051435 8 258 0.0 0.0 0.18 0.18 0.18 96 1014.0
20260505050933 8 256 0.0 0.0 0.18 0.18 0.18 95 1014.3
20260505050431 8 257 0.0 0.0 0.00 0.15 0.15 95 1014.0
20260505041359 8 238 3.2 3.2 0.13 0.10 0.10 92 1014.3
20260505040856 8 259 1.6 3.2 0.30 0.10 0.10 91 1014.2
20260505040353 8 258 3.2 4.8 0.30 0.08 0.08 89 1014.1
20260505035850 9 239 1.6 3.2 0.30 0.05 0.05 86 1014.1
20260505035345 10 253 1.6 3.2 0.18 0.03 0.03 80 1014.2
20260505034843 11 251 0.0 1.6 0.00 0.00 0.00 74 1014.1
20260505034339 11 248 3.2 4.8 0.00 0.00 0.00 68 1013.6
20260505033837 11 242 1.6 3.2 0.00 0.00 0.00 68 1013.6
20260505033333 11 245 3.2 3.2 0.00 0.00 0.00 66 1013.5
20260505032832 11 246 4.8 8.0 0.00 0.00 0.00 65 1013.5
20260505032328 11 261 1.6 1.6 0.00 0.00 0.00 65 1013.5
20260505031825 11 269 0.0 1.6 0.00 0.00 0.00 64 1013.4
20260505031321 11 263 0.0 0.0 0.00 0.00 0.00 65 1013.0
20260505030819 11 267 1.6 1.6 0.00 0.00 0.00 65 1013.2
20260505030315 11 264 0.0 0.0 0.00 0.00 0.00 65 1013.0
20260505025810 11 269 0.0 0.0 0.00 0.00 0.00 65 1013.0
20260505025308 11 265 0.0 0.0 0.00 0.00 0.00 65 1012.8
20260505024807 11 273 0.0 0.0 0.00 0.00 0.00 64 1012.7
20260505024304 11 273 0.0 0.0 0.00 0.00 0.00 63 1012.5
20260505023801 11 273 1.6 1.6 0.00 0.00 0.00 63 1012.4
20260505023258 11 272 0.0 0.0 0.00 0.00 0.00 63 1012.4
20260505022755 11 268 0.0 0.0 0.00 0.00 0.00 63 1012.4
20260505022252 11 270 0.0 0.0 0.00 0.00 0.00 62 1012.7
20260505021749 11 265 0.0 0.0 0.00 0.00 0.00 62 1012.4
20260505021246 11 277 0.0 1.6 0.00 0.00 0.00 62 1012.4
20260505020741 11 271 0.0 0.0 0.00 0.00 0.00 63 1012.9
20260505020237 11 273 0.0 0.0 0.00 0.00 0.00 62 1012.8
20260505015734 11 273 0.0 1.6 0.00 0.00 0.00 61 1012.5
20260505015231 12 276 0.0 0.0 0.00 0.00 0.00 60 1012.2
20260505014728 12 266 0.0 0.0 0.00 0.00 0.00 58 1012.1
20260505014226 12 267 0.0 0.0 0.00 0.00 0.00 58 1012.1
20260505013722 12 263 0.0 0.0 0.00 0.00 0.00 57 1012.2
20260505013219 12 288 1.6 1.6 0.00 0.00 0.00 57 1011.8
20260505012718 12 274 0.0 0.0 0.00 0.00 0.00 60 1012.1
20260505012214 12 272 1.6 1.6 0.00 0.00 0.00 60 1012.1
20260505011710 12 266 1.6 3.2 0.00 0.00 0.00 60 1011.9
20260505011208 12 240 3.2 4.8 0.00 0.00 0.00 60 1012.3
20260505010703 12 240 3.2 4.8 0.00 0.00 0.00 60 1012.1
20260505010200 13 249 8.0 11.3 0.00 0.00 0.00 54 1012.2
20260505005656 13 272 4.8 4.8 0.00 0.00 0.00 52 1011.8
20260505005153 13 262 8.0 12.9 0.00 0.00 0.00 52 1012.3
20260505004650 13 252 6.4 11.3 0.00 0.00 0.00 55 1011.9
20260505004146 13 308 4.8 8.0 0.00 0.00 0.00 51 1011.8
20260505003644 14 240 4.8 8.0 0.00 0.00 0.00 48 1011.7
20260505003141 15 266 8.0 12.9 0.00 0.00 0.00 44 1011.4
20260505002637 14 273 4.8 8.0 0.00 0.00 0.00 44 1011.6
20260505002136 15 308 4.8 8.0 0.00 0.00 0.00 45 1011.6
20260505001632 15 269 8.0 11.3 0.00 0.00 0.00 44 1011.4
20260505001130 15 293 4.8 9.7 0.00 0.00 0.00 43 1011.5
20260505000627 15 255 9.7 12.9 0.00 0.00 0.00 41 1011.0
20260505000125 15 245 17.7 20.9 0.00 0.00 0.00 40 1011.4
20260504235621 15 246 4.8 9.7 0.00 0.00 0.00 41 1011.1
20260504235117 15 266 6.4 9.7 0.00 0.00 0.00 42 1011.1
20260504234615 16 242 11.3 12.9 0.00 0.00 0.00 38 1011.0
20260504234112 16 258 6.4 11.3 0.00 0.00 0.00 35 1011.1
20260504233607 16 344 4.8 8.0 0.00 0.00 0.00 34 1010.6
20260504233104 16 295 4.8 4.8 0.00 0.00 0.00 33 1010.9
20260504232601 17 267 8.0 11.3 0.00 0.00 0.00 33 1010.8
20260504232059 17 297 6.4 9.7 0.00 0.00 0.00 33 1010.5
20260504231555 17 291 6.4 8.0 0.00 0.00 0.00 33 1010.6
20260504231051 17 283 8.0 11.3 0.00 0.00 0.00 33 1010.5
20260504230547 17 298 6.4 9.7 0.00 0.00 0.00 32 1010.3
20260504230046 17 251 3.2 3.2 0.00 0.00 0.00 32 1010.2
20260504225543 17 256 4.8 8.0 0.00 0.00 0.00 32 1010.2
20260504225040 17 291 6.4 8.0 0.00 0.00 0.00 32 1010.3
20260504224537 17 260 12.9 14.5 0.00 0.00 0.00 32 1010.2
20260504224034 17 291 11.3 14.5 0.00 0.00 0.00 31 1010.2
20260504223531 17 265 4.8 8.0 0.00 0.00 0.00 32 1010.2
20260504223026 17 272 16.1 22.5 0.00 0.00 0.00 31 1010.1
20260504222523 17 302 8.0 12.9 0.00 0.00 0.00 31 1010.3
20260504222021 17 307 6.4 8.0 0.00 0.00 0.00 30 1010.2
20260504221518 17 303 3.2 8.0 0.00 0.00 0.00 30 1010.2
20260504221015 17 269 9.7 14.5 0.00 0.00 0.00 30 1010.1
20260504220511 18 231 8.0 11.3 0.00 0.00 0.00 29 1009.8
20260504220009 19 318 8.0 11.3 0.00 0.00 0.00 25 1009.5
20260504215505 19 216 8.0 9.7 0.00 0.00 0.00 25 1009.5
20260504215003 19 233 8.0 11.3 0.00 0.00 0.00 24 1009.5
20260504214458 20 273 4.8 4.8 0.00 0.00 0.00 24 1009.6
20260504213955 19 250 1.6 3.2 0.00 0.00 0.00 24 1009.6
20260504213450 20 243 8.0 8.0 0.00 0.00 0.00 24 1009.6
20260504212948 20 311 12.9 22.5 0.00 0.00 0.00 23 1009.8
20260504212444 20 283 3.2 4.8 0.00 0.00 0.00 22 1010.1
20260504211942 20 262 4.8 4.8 0.00 0.00 0.00 23 1009.9
20260504211438 20 301 8.0 9.7 0.00 0.00 0.00 24 1009.7
20260504210936 21 257 8.0 11.3 0.00 0.00 0.00 23 1009.9
20260504210432 20 253 8.0 9.7 0.00 0.00 0.00 23 1010.1
20260504205929 20 255 4.8 4.8 0.00 0.00 0.00 24 1010.2
20260504205427 20 260 9.7 11.3 0.00 0.00 0.00 23 1010.3
20260504204925 20 234 3.2 3.2 0.00 0.00 0.00 24 1010.2
20260504204423 20 222 1.6 3.2 0.00 0.00 0.00 24 1010.2
20260504203922 20 255 3.2 4.8 0.00 0.00 0.00 24 1010.4
20260504203419 21 260 4.8 14.5 0.00 0.00 0.00 23 1010.3
20260504202914 21 254 16.1 20.9 0.00 0.00 0.00 24 1010.5
20260504202412 21 220 8.0 11.3 0.00 0.00 0.00 24 1010.4
20260504201909 20 255 6.4 8.0 0.00 0.00 0.00 24 1010.4
20260504201406 20 217 8.0 9.7 0.00 0.00 0.00 24 1010.4
20260504200903 20 282 14.5 16.1 0.00 0.00 0.00 24 1010.4
20260504200400 20 255 3.2 4.8 0.00 0.00 0.00 24 1010.3
20260504195857 20 259 3.2 4.8 0.00 0.00 0.00 24 1010.4
20260504195352 20 245 4.8 4.8 0.00 0.00 0.00 24 1010.4
20260504194849 21 258 6.4 9.7 0.00 0.00 0.00 22 1010.6
20260504194345 21 278 6.4 8.0 0.00 0.00 0.00 21 1010.6
20260504193841 20 308 4.8 8.0 0.00 0.00 0.00 24 1010.6
20260504193338 19 258 0.0 1.6 0.00 0.00 0.00 26 1010.5
20260504192837 18 273 0.0 1.6 0.00 0.00 0.00 26 1010.5
20260504192335 18 271 4.8 8.0 0.00 0.00 0.00 27 1010.9
20260504191833 18 284 11.3 14.5 0.00 0.00 0.00 28 1011.0
20260504191330 18 255 9.7 12.9 0.00 0.00 0.00 26 1011.0
20260504190825 18 235 3.2 4.8 0.00 0.00 0.00 26 1011.4
20260504190322 18 349 4.8 4.8 0.00 0.00 0.00 27 1011.2
20260504185818 19 237 6.4 8.0 0.00 0.00 0.00 23 1011.5
20260504185315 20 258 0.0 1.6 0.00 0.00 0.00 24 1010.8
20260504184811 20 249 1.6 3.2 0.00 0.00 0.00 23 1010.8
20260504184307 20 259 9.7 11.3 0.00 0.00 0.00 23 1010.5
20260504183803 20 244 4.8 4.8 0.00 0.00 0.00 21 1010.4
20260504183300 20 257 3.2 3.2 0.00 0.00 0.00 22 1010.5
20260504182758 21 244 6.4 11.3 0.00 0.00 0.00 22 1010.6
20260504182255 20 244 4.8 4.8 0.00 0.00 0.00 22 1010.3
20260504181753 20 294 3.2 4.8 0.00 0.00 0.00 22 1010.8
20260504181250 20 282 3.2 3.2 0.00 0.00 0.00 21 1010.5
20260504180749 20 272 3.2 3.2 0.00 0.00 0.00 21 1010.6
20260504180247 21 303 6.4 9.7 0.00 0.00 0.00 21 1010.6
20260504175745 21 266 4.8 4.8 0.00 0.00 0.00 21 1010.6
20260504175241 21 267 3.2 3.2 0.00 0.00 0.00 21 1010.5
20260504174739 21 212 4.8 4.8 0.00 0.00 0.00 21 1010.9
20260504174237 22 288 3.2 3.2 0.00 0.00 0.00 21 1010.5
20260504173733 21 252 6.4 8.0 0.00 0.00 0.00 21 1011.0
20260504173230 21 226 8.0 9.7 0.00 0.00 0.00 22 1010.9
20260504172727 21 242 22.5 32.2 0.00 0.00 0.00 21 1011.0
20260504172223 21 261 14.5 25.7 0.00 0.00 0.00 22 1011.1
20260504171720 21 266 3.2 3.2 0.00 0.00 0.00 20 1010.9
20260504171217 21 276 11.3 14.5 0.00 0.00 0.00 21 1011.1
20260504170714 21 264 3.2 3.2 0.00 0.00 0.00 23 1011.0
20260504170211 20 262 9.7 12.9 0.00 0.00 0.00 22 1011.0
20260504160129 20 236 1.6 3.2 0.00 0.00 0.00 24 1011.7